Weather History for LIRA - February, 2015

Change the Weather History Date:

Monday, February 16, 2015

  Actual Average Record
Temperature  
Mean Temperature 52 °F -  
Max Temperature 58 °F 57 °F 66 °F (2014)
Min Temperature 46 °F 40 °F 28 °F (1999)
Degree Days  
Heating Degree Days 13    
Growing Degree Days 2 (Base 50)    
Moisture  
Dew Point 45 °F    
Average Humidity 77    
Maximum Humidity 93    
Minimum Humidity 55    
Precipitation  
Precipitation 0.00 in 0.11 in - ()
Sea Level Pressure  
Sea Level Pressure 29.90 in    
Wind  
Wind Speed 8 mph ()    
Max Wind Speed 17 mph    
Max Gust Speed 31 mph    
Visibility 6.1 miles    
Events Rain    
Averages and records for this station are not official NWS values.
T = Trace of Precipitation, MM = Missing Value Source: Averaged Metar Reports

Daily Weather History Graph

Daily Weather History Graph

Search for Another Location

Airport or City:

Trip Planner

Search our weather history database for the weather conditions in past years. The results will help you decide how hot, cold, wet, or windy it might be!

Date:

Astronomy

Feb. 16, 2015 Rise Set
Actual Time 7:04 AM CET 5:43 PM CET
Civil Twilight 6:36 AM CET 6:12 PM CET
Nautical Twilight 6:03 AM CET 6:44 PM CET
Astronomical Twilight 5:31 AM CET 7:16 PM CET
Moon 4:45 AM CET (2/16) 3:01 PM CET (2/16)
Length of Visible Light 11h 36m
Length of Day
10h 38m
Waning Crescent, 9% of the Moon is Illuminated
Feb 16
Waning Crescent
Feb 19
New
Feb 25
First Quarter
Mar 5
Full
Mar 13
Last Quarter

Hourly Weather History & Observations

Time (CET) Temp. Dew Point Humidity Pressure Visibility Wind Dir Wind Speed Gust Speed Precip Events Conditions
12:15 AM 48.2 °F 42.8 °F 82% 29.89 in 6.2 mi East 5.8 mph - N/A   Scattered Clouds
12:45 AM 48.2 °F 42.8 °F 82% 29.89 in 6.2 mi East 10.4 mph - N/A   Scattered Clouds
1:00 AM 49 °F 43 °F 71% 29.91 in 7 mi East 10.4 mph - -   Scattered Clouds
1:15 AM 48.2 °F 42.8 °F 82% 29.89 in 6.2 mi East 9.2 mph - N/A   Scattered Clouds
1:45 AM 50.0 °F 42.8 °F 76% 29.86 in 6.2 mi East 11.5 mph - N/A   Scattered Clouds
2:15 AM 50.0 °F 44.6 °F 82% 29.86 in 6.2 mi East 9.2 mph - N/A   Scattered Clouds
2:45 AM 50.0 °F 44.6 °F 82% 29.86 in 6.2 mi East 8.1 mph - N/A   Scattered Clouds
3:15 AM 50.0 °F 44.6 °F 82% 29.86 in 6.2 mi East 10.4 mph - N/A   Mostly Cloudy
3:45 AM 50.0 °F 46.4 °F 87% 29.86 in 6.2 mi East 11.5 mph - N/A Rain Light Rain
4:00 AM 50 °F 46 °F 80% 29.87 in 6 mi East 11.5 mph - - Rain Light Rain
4:15 AM 50.0 °F 46.4 °F 87% 29.83 in 5.0 mi ESE 9.2 mph - N/A Rain Light Rain
4:45 AM 50.0 °F 46.4 °F 87% 29.83 in 5.0 mi East 3.5 mph - N/A Rain Light Rain
5:15 AM 48.2 °F 46.4 °F 93% 29.83 in 5.0 mi East 5.8 mph - N/A Rain Light Rain
5:45 AM 48.2 °F 46.4 °F 93% 29.83 in 6.2 mi East 5.8 mph - N/A   Mostly Cloudy
6:15 AM 48.2 °F 42.8 °F 82% 29.83 in 5.6 mi East 10.4 mph - N/A   Mostly Cloudy
6:45 AM 48.2 °F 42.8 °F 82% 29.83 in 5.6 mi East 9.2 mph - N/A   Mostly Cloudy
7:00 AM 48 °F 43 °F 75% 29.85 in 6 mi East 9.2 mph - -   Mist
7:15 AM 48.2 °F 42.8 °F 82% 29.83 in 6.2 mi East 10.4 mph - N/A   Scattered Clouds
7:45 AM 50.0 °F 42.8 °F 76% 29.83 in 6.2 mi East 9.2 mph - N/A   Scattered Clouds
8:15 AM 48.2 °F 44.6 °F 87% 29.83 in 6.2 mi East 8.1 mph - N/A Rain Light Rain
8:45 AM 50.0 °F 46.4 °F 87% 29.83 in 6.2 mi East 10.4 mph - N/A Rain Light Rain
9:15 AM 50.0 °F 46.4 °F 87% 29.86 in 6.2 mi East 9.2 mph - N/A   Mostly Cloudy
9:45 AM 55.4 °F 48.2 °F 77% 29.86 in 6.2 mi East 10.4 mph - N/A   Scattered Clouds
10:00 AM 55 °F 48 °F 69% 29.88 in 6 mi East 10.4 mph - - Rain Light Rain
10:15 AM 55.4 °F 46.4 °F 72% 29.86 in 6.2 mi ESE 13.8 mph 26.5 mph N/A   Scattered Clouds
10:45 AM 57.2 °F 46.4 °F 67% 29.89 in 6.2 mi ESE 11.5 mph - N/A   Mostly Cloudy
11:15 AM 57.2 °F 46.4 °F 67% 29.89 in 6.2 mi East 11.5 mph - N/A   Mostly Cloudy
11:45 AM 59.0 °F 48.2 °F 67% 29.89 in 6.2 mi ENE 9.2 mph - N/A   Mostly Cloudy
12:15 PM 57.2 °F 46.4 °F 67% 29.89 in 6.2 mi ESE 16.1 mph - N/A   Mostly Cloudy
12:45 PM 55.4 °F 48.2 °F 77% 29.89 in 6.2 mi ESE 15.0 mph 28.8 mph N/A   Mostly Cloudy
1:00 PM 55 °F 48 °F 71% 29.90 in 6 mi ESE 15.0 mph - -   Partly Cloudy
1:15 PM 53.6 °F 46.4 °F 77% 29.89 in 6.2 mi SE 17.3 mph 31.1 mph N/A   Mostly Cloudy
1:45 PM 53.6 °F 44.6 °F 72% 29.89 in 6.2 mi ESE 15.0 mph 27.6 mph N/A   Mostly Cloudy
2:15 PM 53.6 °F 44.6 °F 72% 29.89 in 6.2 mi ESE 12.7 mph - N/A   Mostly Cloudy
2:45 PM 53.6 °F 46.4 °F 77% 29.89 in 6.2 mi East 8.1 mph - N/A   Mostly Cloudy
3:15 PM 51.8 °F 46.4 °F 82% 29.89 in 6.2 mi East 11.5 mph - N/A   Mostly Cloudy
3:45 PM 51.8 °F 44.6 °F 76% 29.89 in 6.2 mi East 15.0 mph - N/A   Mostly Cloudy
4:00 PM 52 °F 45 °F 70% 29.91 in 6 mi East 15.0 mph - -   Overcast
4:15 PM 51.8 °F 44.6 °F 76% 29.89 in 6.2 mi East 10.4 mph - N/A   Mostly Cloudy
4:45 PM 51.8 °F 44.6 °F 76% 29.89 in 6.2 mi East 9.2 mph - N/A   Mostly Cloudy
5:15 PM 51.8 °F 44.6 °F 76% 29.92 in 6.2 mi East 10.4 mph - N/A   Mostly Cloudy
5:45 PM 51.8 °F 44.6 °F 76% 29.92 in 6.2 mi ENE 9.2 mph - N/A   Mostly Cloudy
6:15 PM 51.8 °F 42.8 °F 71% 29.92 in 6.2 mi East 5.8 mph - N/A   Scattered Clouds
6:45 PM 51.8 °F 41.0 °F 67% 29.95 in 6.2 mi East 5.8 mph - N/A   Scattered Clouds
7:00 PM 52 °F 40 °F 55% 29.97 in 6 mi East 5.8 mph - -   Mostly Cloudy
7:15 PM 51.8 °F 41.0 °F 67% 29.95 in 6.2 mi ENE 4.6 mph - N/A   Scattered Clouds
7:45 PM 51.8 °F 44.6 °F 76% 29.95 in 6.2 mi NE 6.9 mph - N/A   Scattered Clouds
8:15 PM 51.8 °F 44.6 °F 76% 29.95 in 6.2 mi NE 5.8 mph - N/A   Scattered Clouds
8:45 PM 50.0 °F 44.6 °F 82% 29.98 in 6.2 mi NE 5.8 mph - N/A   Scattered Clouds
9:15 PM 51.8 °F 42.8 °F 71% 29.98 in 6.2 mi ENE 5.8 mph - N/A   Scattered Clouds
9:45 PM 50.0 °F 42.8 °F 76% 29.98 in 6.2 mi NE 3.5 mph - N/A   Scattered Clouds
10:00 PM 51 °F 43 °F 66% 30.01 in 6 mi NE 3.5 mph - -   Partly Cloudy
10:15 PM 50.0 °F 42.8 °F 76% 30.01 in 6.2 mi Calm Calm - N/A   Scattered Clouds
10:45 PM 50.0 °F 42.8 °F 76% 30.01 in 6.2 mi NNE 2.3 mph - N/A   Scattered Clouds
11:15 PM 50.0 °F 42.8 °F 76% 30.01 in 6.2 mi Calm Calm - N/A   Scattered Clouds
11:45 PM 50.0 °F 42.8 °F 76% 30.01 in 6.2 mi NE 1.2 mph - N/A   Scattered Clouds